Location: Althorst
(53.6379°N, 10.7715°E)
Time: 21:27:42
(UTC+00:00)

Cosmos 1980 - Pass Details

Date: 10 December 2019
Orbit: 838 x 848 km, 71.0° (Epoch: 21 January)

Event Time Altitude Azimuth Distance (km) Brightness Sun altitude
Rises 16:20:32 0° 185° (S) 3,379 7.2 -11.4°
Reaches altitude 10° 16:23:04 10° 178° (S) 2,449 6.4 -11.7°
Maximum altitude 16:28:17 41° 110° (ESE) 1,210 4.2 -12.5°
Enters shadow 16:32:24 16° 47° (NE) 2,082 5.2 -13.0°
